This demonstration page uses our WeatherBlox Daily Observations layout. Learn more.

Left ArrowRight Arrow

44.8408, -93.29828

Hourly Observations for March 17, 2022

Temp ( °F °C ) Dew Point ( °F °C ) Humidity (%) Winds ( mph kmh ) Pressure ( in mb ) Visibility ( mi km ) Precip ( " mm )
12:53 am 00:53 Partly Cloudy 42 5.6 35 1.7 76 76 WSW 3 6 29.85 1011 10 16 0.00 0.00
1:53 am 01:53 Partly Cloudy 41 5 35 1.7 79 79 WSW 3 6 29.87 1012 10 16 0.00 0.00
2:53 am 02:53 Partly Cloudy 39 3.9 34 1.1 82 82 W 6 9 29.88 1012 9 14 0.00 0.00
3:53 am 03:53 Partly Cloudy 37 2.8 32 0 82 82 WNW 6 9 29.89 1012 10 16 0.00 0.00
4:53 am 04:53 Partly Cloudy 37 2.8 32 0 82 82 NW 12 19 29.91 1013 10 16 0.00 0.00
5:06 am 05:06 Mostly Cloudy 36 2.2 32 0 86 86 NNW 9 15 29.94 1014 10 16 0.00 0.00
5:34 am 05:34 Cloudy 37 2.8 32 0 82 82 NNW 15 24 29.95 1014 10 16 0.00 0.00
5:53 am 05:53 Cloudy 36 2.2 32 0 86 86 NNW 9 15 29.93 1014 9 14 0.00 0.00
6:53 am 06:53 Cloudy 36 2.2 32 0 86 86 NNW 12 19 29.96 1015 9 14 0.00 0.00
7:36 am 07:36 Cloudy 36 2.2 31 -0.6 82 82 NNW 9 15 30.00 1016 9 14 0.00 0.00
7:53 am 07:53 Cloudy 36 2.2 31 -0.6 82 82 NNW 9 15 29.98 1015 8 13 0.00 0.00
8:53 am 08:53 Cloudy 37 2.8 31 -0.6 79 79 NNW 10 17 30.00 1016 10 16 0.00 0.00
9:41 am 09:41 Partly Cloudy 38 3.3 31 -0.6 76 76 NNW 12 19 30.03 1017 10 16 0.00 0.00
9:53 am 09:53 Sunny 38 3.3 31 -0.6 76 76 NW 10 17 30.03 1017 10 16 0.00 0.00
10:23 am 10:23 Mostly Cloudy 39 3.9 32 0 76 76 NNW 9 15 30.05 1018 10 16 0.00 0.00
10:35 am 10:35 Partly Cloudy 40 4.4 32 0 73 73 NNW 9 15 30.05 1018 10 16 0.00 0.00
10:53 am 10:53 Mostly Cloudy 41 5 32 0 70 70 NNW 7 11 30.04 1017 10 16 0.00 0.00
11:53 am 11:53 Mostly Cloudy 43 6.1 33 0.6 68 68 NW 9 15 30.05 1018 10 16 0.00 0.00
12:53 pm 12:53 Mostly Cloudy 45 7.2 32 0 61 61 NW 10 17 30.05 1018 10 16 0.00 0.00
1:53 pm 13:53 Cloudy 47 8.3 33 0.6 59 59 NNW 13 20 30.05 1018 10 16 0.00 0.00
2:53 pm 14:53 Cloudy 48 8.9 33 0.6 56 56 WNW 10 17 30.03 1017 10 16 0.00 0.00
3:53 pm 15:53 Cloudy 47 8.3 32 0 56 56 NW 10 17 30.04 1017 10 16 0.00 0.00
4:53 pm 16:53 Mostly Cloudy 47 8.3 32 0 56 56 WNW 8 13 30.05 1018 10 16 0.00 0.00
5:53 pm 17:53 Mostly Cloudy 46 7.8 32 0 58 58 NW 10 17 30.05 1018 10 16 0.00 0.00
6:53 pm 18:53 Mostly Cloudy 44 6.7 31 -0.6 60 60 NW 8 13 30.07 1018 10 16 0.00 0.00
7:53 pm 19:53 Mostly Cloudy 42 5.6 31 -0.6 65 65 NW 6 9 30.09 1019 10 16 0.00 0.00
8:53 pm 20:53 Mostly Cloudy 41 5 31 -0.6 67 67 NW 5 7 30.10 1019 10 16 0.00 0.00
9:53 pm 21:53 Mostly Cloudy 41 5 31 -0.6 67 67 NW 6 9 30.11 1020 10 16 0.00 0.00
10:53 pm 22:53 Mostly Cloudy 41 5 30 -1.1 65 65 NNW 8 13 30.10 1019 10 16 0.00 0.00
11:53 pm 23:53 Mostly Cloudy 40 4.4 29 -1.7 65 65 NNW 9 15 30.09 1019 10 16 0.00 0.00

Powered by AerisWeather